GAF264 EDDS-ETNW

Flight info

Callsign GAF264
Flight time 0h 46m
Altitude 23000
Route OKIBA4B OKIBA N851 RIMKI Z99 ELNAT P605 NORTA DCT DLE DCT ROBEG DCT IPKAP
Aircraft A321/M-SDE3FGHIRWY/LB1

Departure

Time 2026-05-04 18:55
Airport Stuttgart Airport (EDDS)

Arrival

Time 2026-05-04 19:41
Airport Wunstorf Air Base (ETNW)
Time Latitude Longitude Altitude Speed Heading
2026-05-04 18:22 48.68254 9.20022 1287 ft 0 kts 162°
2026-05-04 18:41 48.68252 9.20027 1287 ft 1 kts 129°
2026-05-04 18:41 48.68256 9.20038 1287 ft 2 kts 64°
2026-05-04 18:42 48.68278 9.20094 1289 ft 9 kts 51°
2026-05-04 18:42 48.68346 9.20132 1284 ft 12 kts 353°
2026-05-04 18:42 48.68397 9.20109 1287 ft 1 kts 342°
2026-05-04 18:42 48.68415 9.20100 1286 ft 10 kts 343°
2026-05-04 18:43 48.68568 9.20033 1291 ft 35 kts 343°
2026-05-04 18:43 48.68699 9.19981 1288 ft 0 kts 346°
2026-05-04 18:43 48.68703 9.19979 1286 ft 1 kts 346°
2026-05-04 18:43 48.68724 9.19971 1287 ft 5 kts 346°
2026-05-04 18:44 48.68790 9.19972 1285 ft 15 kts 11°
2026-05-04 18:44 48.68836 9.20043 1291 ft 15 kts 69°
2026-05-04 18:44 48.68886 9.20286 1281 ft 21 kts 73°
2026-05-04 18:44 48.68931 9.20524 1275 ft 26 kts 74°
2026-05-04 18:45 48.68987 9.20813 1270 ft 30 kts 73°
2026-05-04 18:45 48.69048 9.21137 1267 ft 33 kts 74°
2026-05-04 18:45 48.69114 9.21486 1259 ft 36 kts 74°
2026-05-04 18:45 48.69185 9.21859 1250 ft 39 kts 75°
2026-05-04 18:46 48.69250 9.22203 1233 ft 21 kts 74°
2026-05-04 18:46 48.69292 9.22430 1231 ft 23 kts 75°
2026-05-04 18:46 48.69331 9.22631 1227 ft 16 kts 74°
2026-05-04 18:46 48.69365 9.22810 1226 ft 19 kts 74°
2026-05-04 18:47 48.69395 9.22970 1223 ft 14 kts 74°
2026-05-04 18:47 48.69426 9.23128 1220 ft 18 kts 73°
2026-05-04 18:47 48.69464 9.23339 1213 ft 24 kts 75°
2026-05-04 18:47 48.69512 9.23585 1208 ft 25 kts 74°
2026-05-04 18:48 48.69558 9.23823 1203 ft 20 kts 74°
2026-05-04 18:48 48.69599 9.24042 1197 ft 20 kts 74°
2026-05-04 18:48 48.69599 9.24184 1193 ft 14 kts 115°
2026-05-04 18:48 48.69577 9.24244 1192 ft 0 kts 119°
2026-05-04 18:49 48.69574 9.24252 1192 ft 3 kts 119°
2026-05-04 18:50 48.69529 9.24306 1190 ft 10 kts 165°
2026-05-04 18:50 48.69508 9.24314 1189 ft 0 kts 168°
2026-05-04 18:53 48.69499 9.24317 1189 ft 5 kts 167°
2026-05-04 18:53 48.69406 9.24328 1189 ft 11 kts 211°
2026-05-04 18:53 48.69381 9.24266 1190 ft 1 kts 252°
2026-05-04 18:53 48.69380 9.24261 1190 ft 0 kts 255°
2026-05-04 18:54 48.69380 9.24260 1190 ft 0 kts 256°
2026-05-04 18:54 48.69370 9.24202 1191 ft 25 kts 254°
2026-05-04 18:54 48.69247 9.23537 1208 ft 106 kts 254°
2026-05-04 18:54 48.68987 9.22115 1267 ft 169 kts 253°
2026-05-04 18:55 48.68647 9.20336 1902 ft 181 kts 255°
2026-05-04 18:55 48.67914 9.16580 3329 ft 202 kts 256°
2026-05-04 18:55 48.67494 9.14421 3686 ft 225 kts 255°
2026-05-04 18:56 48.67051 9.12027 4016 ft 247 kts 261°
2026-05-04 18:56 48.67263 9.09411 4720 ft 255 kts 293°
2026-05-04 18:56 48.68204 9.07149 4947 ft 254 kts 316°
2026-05-04 18:56 48.69752 9.05904 5010 ft 262 kts 348°
2026-05-04 18:57 48.71577 9.05318 5012 ft 272 kts 347°
2026-05-04 18:57 48.73419 9.04609 5007 ft 273 kts 351°
2026-05-04 18:57 48.75307 9.04519 5009 ft 272 kts
2026-05-04 18:57 48.77117 9.05327 5033 ft 273 kts 28°
2026-05-04 18:58 48.78661 9.07056 5770 ft 278 kts 47°
2026-05-04 18:58 48.79851 9.09367 6722 ft 280 kts 56°
2026-05-04 18:58 48.80993 9.11793 7618 ft 285 kts 56°
2026-05-04 18:58 48.82148 9.14268 8492 ft 290 kts 56°
2026-05-04 18:59 48.83323 9.16796 9374 ft 295 kts 57°
2026-05-04 18:59 48.84518 9.19374 10189 ft 303 kts 57°
2026-05-04 18:59 48.85774 9.22088 10540 ft 326 kts 57°
2026-05-04 18:59 48.87126 9.25012 10801 ft 350 kts 56°
2026-05-04 19:00 48.88769 9.27909 10985 ft 375 kts 44°
2026-05-04 19:00 48.90897 9.30400 11198 ft 396 kts 32°
2026-05-04 19:00 48.93405 9.32223 11743 ft 404 kts 19°
2026-05-04 19:00 48.96138 9.33251 12416 ft 408 kts
2026-05-04 19:01 48.98976 9.33409 13123 ft 410 kts 356°
2026-05-04 19:01 49.01837 9.33188 13820 ft 413 kts 356°
2026-05-04 19:01 49.04720 9.32959 14412 ft 417 kts 356°
2026-05-04 19:01 49.07633 9.32724 14995 ft 421 kts 356°
2026-05-04 19:02 49.10570 9.32486 15565 ft 425 kts 356°
2026-05-04 19:02 49.13537 9.32246 16132 ft 429 kts 356°
2026-05-04 19:02 49.16528 9.32005 16691 ft 433 kts 355°
2026-05-04 19:02 49.19548 9.31761 17251 ft 437 kts 355°
2026-05-04 19:03 49.22595 9.31517 17813 ft 440 kts 356°
2026-05-04 19:03 49.25670 9.31277 18358 ft 444 kts 356°
2026-05-04 19:03 49.28808 9.31035 18858 ft 447 kts 355°
2026-05-04 19:03 49.31884 9.30802 19354 ft 450 kts 355°
2026-05-04 19:04 49.35069 9.30605 19849 ft 454 kts 359°
2026-05-04 19:04 49.38234 9.30926 20335 ft 458 kts
2026-05-04 19:04 49.41412 9.31396 20821 ft 461 kts
2026-05-04 19:04 49.44619 9.31874 21282 ft 465 kts
2026-05-04 19:05 49.47848 9.32355 21747 ft 468 kts
2026-05-04 19:05 49.51104 9.32836 22209 ft 471 kts
2026-05-04 19:05 49.54381 9.33321 22661 ft 475 kts
2026-05-04 19:05 49.57684 9.33812 22934 ft 478 kts
2026-05-04 19:06 49.61015 9.34307 22983 ft 484 kts
2026-05-04 19:06 49.64373 9.34805 22975 ft 486 kts
2026-05-04 19:06 49.67746 9.35308 22979 ft 487 kts
2026-05-04 19:06 49.71117 9.35816 22975 ft 487 kts
2026-05-04 19:07 49.74486 9.36382 22981 ft 487 kts
2026-05-04 19:07 49.77802 9.37494 22980 ft 488 kts 13°
2026-05-04 19:07 49.81096 9.38768 22975 ft 488 kts 13°
2026-05-04 19:07 49.84387 9.40037 22979 ft 487 kts 13°
2026-05-04 19:08 49.87682 9.41301 22972 ft 487 kts 13°
2026-05-04 19:08 49.90967 9.42560 22971 ft 486 kts 13°
2026-05-04 19:08 49.94252 9.43821 22968 ft 486 kts 13°
2026-05-04 19:08 49.97532 9.45083 22971 ft 486 kts 13°
2026-05-04 19:09 50.00814 9.46353 22969 ft 485 kts 13°
2026-05-04 19:09 50.04090 9.47623 22969 ft 485 kts 13°
2026-05-04 19:09 50.07426 9.48732 22966 ft 484 kts
2026-05-04 19:09 50.10768 9.49307 22982 ft 483 kts
2026-05-04 19:10 50.14115 9.49841 23501 ft 484 kts
2026-05-04 19:10 50.16336 9.50197 23777 ft 484 kts
2026-05-04 19:10 50.19682 9.50734 23938 ft 484 kts
2026-05-04 19:10 50.23038 9.51273 23976 ft 484 kts
2026-05-04 19:11 50.26387 9.51815 23977 ft 484 kts
2026-05-04 19:11 50.29732 9.52359 23977 ft 484 kts
2026-05-04 19:11 50.33080 9.52907 23980 ft 484 kts
2026-05-04 19:11 50.36426 9.53457 23977 ft 484 kts
2026-05-04 19:12 50.39775 9.54010 23977 ft 484 kts
2026-05-04 19:12 50.46476 9.55112 23978 ft 484 kts
2026-05-04 19:12 50.49822 9.55660 23980 ft 484 kts
2026-05-04 19:13 50.53176 9.56207 23979 ft 484 kts
2026-05-04 19:13 50.56575 9.56766 23971 ft 484 kts
2026-05-04 19:13 50.59924 9.57321 23970 ft 484 kts
2026-05-04 19:13 50.63268 9.57911 23969 ft 484 kts
2026-05-04 19:14 50.66613 9.58546 23965 ft 484 kts
2026-05-04 19:14 50.69946 9.59205 23964 ft 484 kts
2026-05-04 19:14 50.73295 9.59876 23959 ft 484 kts
2026-05-04 19:14 50.76645 9.60546 23961 ft 484 kts
2026-05-04 19:15 50.79991 9.61207 23960 ft 484 kts
2026-05-04 19:15 50.83319 9.61857 23966 ft 484 kts
2026-05-04 19:15 50.86676 9.62507 23963 ft 484 kts
2026-05-04 19:15 50.90015 9.63149 23967 ft 484 kts
2026-05-04 19:16 50.93359 9.63791 23970 ft 484 kts
2026-05-04 19:16 50.96704 9.64436 23968 ft 484 kts
2026-05-04 19:16 51.00049 9.65083 23971 ft 484 kts
2026-05-04 19:16 51.03395 9.65737 23974 ft 484 kts
2026-05-04 19:17 51.06729 9.66391 23976 ft 484 kts
2026-05-04 19:17 51.10074 9.67048 23978 ft 484 kts
2026-05-04 19:17 51.13413 9.67705 23980 ft 483 kts
2026-05-04 19:17 51.16748 9.68368 23979 ft 483 kts
2026-05-04 19:18 51.20132 9.68716 23978 ft 479 kts 354°
2026-05-04 19:18 51.23398 9.67863 23983 ft 474 kts 343°
2026-05-04 19:18 51.26598 9.66589 23979 ft 474 kts 343°
2026-05-04 19:18 51.29797 9.65311 23984 ft 474 kts 343°
2026-05-04 19:19 51.32998 9.64030 23987 ft 474 kts 343°
2026-05-04 19:19 51.36192 9.62742 23990 ft 474 kts 343°
2026-05-04 19:19 51.39387 9.61451 23986 ft 474 kts 343°
2026-05-04 19:19 51.42580 9.60160 23987 ft 473 kts 343°
2026-05-04 19:20 51.45775 9.58863 23978 ft 474 kts 343°
2026-05-04 19:20 51.48975 9.57563 23972 ft 474 kts 342°
2026-05-04 19:20 51.52176 9.56265 23974 ft 475 kts 343°
2026-05-04 19:20 51.55379 9.54968 23972 ft 475 kts 343°
2026-05-04 19:21 51.58589 9.53668 23971 ft 476 kts 343°
2026-05-04 19:21 51.61798 9.52371 23969 ft 476 kts 343°
2026-05-04 19:21 51.65001 9.51074 23971 ft 476 kts 343°
2026-05-04 19:21 51.68221 9.49763 23968 ft 476 kts 343°
2026-05-04 19:22 51.71433 9.48447 23966 ft 476 kts 343°
2026-05-04 19:22 51.74641 9.47128 23966 ft 477 kts 343°
2026-05-04 19:22 51.77859 9.45802 23962 ft 477 kts 343°
2026-05-04 19:22 51.81071 9.44482 23966 ft 477 kts 343°
2026-05-04 19:23 51.84292 9.43161 23965 ft 477 kts 343°
2026-05-04 19:23 51.87514 9.41840 23957 ft 478 kts 343°
2026-05-04 19:23 51.90733 9.40521 23960 ft 477 kts 343°
2026-05-04 19:23 51.93894 9.39226 23927 ft 458 kts 342°
2026-05-04 19:24 51.96930 9.37977 23347 ft 447 kts 342°
2026-05-04 19:24 51.99918 9.36702 22579 ft 440 kts 342°
2026-05-04 19:24 52.02893 9.35398 21791 ft 434 kts 342°
2026-05-04 19:24 52.05748 9.34121 21025 ft 429 kts 342°
2026-05-04 19:25 52.08644 9.32814 20283 ft 424 kts 342°
2026-05-04 19:25 52.11469 9.31543 19566 ft 419 kts 342°
2026-05-04 19:25 52.14262 9.30290 18861 ft 414 kts 342°
2026-05-04 19:25 52.17042 9.29050 17859 ft 417 kts 342°
2026-05-04 19:26 52.19846 9.27802 16611 ft 420 kts 343°
2026-05-04 19:26 52.22662 9.26549 14943 ft 422 kts 343°
2026-05-04 19:26 52.25481 9.25297 13734 ft 412 kts 344°
2026-05-04 19:26 52.28127 9.24126 13032 ft 376 kts 344°
2026-05-04 19:27 52.30645 9.23008 12343 ft 379 kts 344°
2026-05-04 19:27 52.33188 9.21875 11662 ft 379 kts 343°
2026-05-04 19:27 52.35727 9.20741 11237 ft 377 kts 343°
2026-05-04 19:27 52.38241 9.19614 10874 ft 369 kts 343°
2026-05-04 19:28 52.40675 9.18520 9502 ft 358 kts 343°
2026-05-04 19:28 52.43054 9.17447 7980 ft 352 kts 343°
2026-05-04 19:28 52.45377 9.16402 6673 ft 341 kts 343°
2026-05-04 19:28 52.47645 9.15381 5365 ft 341 kts 343°
2026-05-04 19:29 52.49920 9.14355 4764 ft 335 kts 343°
2026-05-04 19:29 52.52147 9.13353 4103 ft 330 kts 344°
2026-05-04 19:29 52.54350 9.12361 3434 ft 326 kts 345°
2026-05-04 19:29 52.56529 9.11379 3076 ft 325 kts 345°
2026-05-04 19:30 52.58740 9.10802 2984 ft 316 kts
2026-05-04 19:30 52.60756 9.11718 3005 ft 290 kts 29°
2026-05-04 19:30 52.62222 9.13777 3003 ft 269 kts 53°
2026-05-04 19:30 52.63024 9.16425 3004 ft 251 kts 75°
2026-05-04 19:31 52.63178 9.19192 3003 ft 241 kts 96°
2026-05-04 19:31 52.62742 9.21823 3003 ft 229 kts 116°
2026-05-04 19:31 52.61991 9.24022 3000 ft 213 kts 113°
2026-05-04 19:31 52.61667 9.26362 3007 ft 210 kts 92°
2026-05-04 19:32 52.61798 9.28745 3018 ft 210 kts 77°
2026-05-04 19:32 52.62308 9.30985 3007 ft 210 kts 66°
2026-05-04 19:32 52.62844 9.33222 3008 ft 210 kts 71°
2026-05-04 19:32 52.63258 9.35528 3006 ft 210 kts 76°
2026-05-04 19:33 52.63553 9.37881 3005 ft 210 kts 81°
2026-05-04 19:33 52.63736 9.40266 3007 ft 210 kts 85°
2026-05-04 19:33 52.63806 9.42667 3003 ft 210 kts 90°
2026-05-04 19:33 52.63758 9.45068 3007 ft 210 kts 95°
2026-05-04 19:34 52.63594 9.47447 3005 ft 210 kts 99°
2026-05-04 19:34 52.63314 9.49809 3007 ft 209 kts 104°
2026-05-04 19:34 52.62919 9.52114 3006 ft 209 kts 108°
2026-05-04 19:34 52.62412 9.54363 3008 ft 210 kts 113°
2026-05-04 19:35 52.61800 9.56538 3006 ft 210 kts 117°
2026-05-04 19:35 52.61084 9.58624 3006 ft 210 kts 122°
2026-05-04 19:35 52.60270 9.60611 3006 ft 209 kts 126°
2026-05-04 19:35 52.59366 9.62486 3009 ft 210 kts 131°
2026-05-04 19:36 52.58371 9.64241 3008 ft 210 kts 135°
2026-05-04 19:36 52.57295 9.65859 3008 ft 210 kts 140°
2026-05-04 19:36 52.56143 9.67331 3009 ft 210 kts 144°
2026-05-04 19:36 52.54921 9.68649 3008 ft 210 kts 149°
2026-05-04 19:37 52.53638 9.69801 3008 ft 210 kts 154°
2026-05-04 19:37 52.52261 9.70518 2861 ft 206 kts 172°
2026-05-04 19:37 52.50846 9.70454 2385 ft 204 kts 191°
2026-05-04 19:37 52.49537 9.69584 2034 ft 204 kts 213°
2026-05-04 19:38 52.48492 9.68001 2006 ft 207 kts 232°
2026-05-04 19:38 52.47837 9.65911 2008 ft 207 kts 253°
2026-05-04 19:38 52.47588 9.63590 2011 ft 207 kts 262°
2026-05-04 19:38 52.47394 9.61363 2014 ft 180 kts 262°
2026-05-04 19:39 52.47226 9.59462 1919 ft 156 kts 262°
2026-05-04 19:39 52.47076 9.57765 1779 ft 149 kts 262°
2026-05-04 19:39 52.46929 9.56105 1601 ft 145 kts 262°
2026-05-04 19:39 52.46784 9.54477 1414 ft 141 kts 262°
2026-05-04 19:40 52.46642 9.52901 1219 ft 139 kts 262°
2026-05-04 19:40 52.46507 9.51342 1041 ft 138 kts 262°
2026-05-04 19:40 52.46369 9.49788 859 ft 137 kts 261°
2026-05-04 19:40 52.46233 9.48233 674 ft 137 kts 260°
2026-05-04 19:41 52.46103 9.46685 460 ft 137 kts 260°
2026-05-04 19:41 52.45959 9.45142 297 ft 137 kts 259°
2026-05-04 19:41 52.45819 9.43665 180 ft 119 kts 261°
2026-05-04 19:41 52.45738 9.42773 182 ft 45 kts 261°
2026-05-04 19:42 52.45694 9.42292 179 ft 44 kts 261°
2026-05-04 19:42 52.45655 9.41916 179 ft 15 kts 263°
2026-05-04 19:42 52.45678 9.41814 179 ft 14 kts 326°
2026-05-04 19:42 52.45775 9.41773 180 ft 15 kts 352°
2026-05-04 19:43 52.45884 9.41755 180 ft 16 kts
2026-05-04 19:43 52.45922 9.41812 180 ft 0 kts 79°
2026-05-04 19:43 52.45923 9.41814 180 ft 0 kts 79°